Weather History for KMQB - November, 2012

Change the Weather History Date:

Wednesday, November 7, 2012

  Actual Average (KBRL) Record (KBRL)
Temperature  
Mean Temperature 43 °F 47 °F  
Max Temperature 45 °F 56 °F 80 °F (1915)
Min Temperature 41 °F 37 °F 4 °F (1991)
Degree Days  
Heating Degree Days 22 18  
Month to date heating degree days 119  
Since 1 July heating degree days 513  
Cooling Degree Days 0 0  
Month to date cooling degree days 0  
Year to date cooling degree days 1206  
Moisture  
Dew Point 39 °F    
Average Humidity 86    
Maximum Humidity 98    
Minimum Humidity 74    
Precipitation  
Precipitation 0.00 in 0.08 in 0.86 in (2011)
Month to date precipitation 0.62  
Year to date precipitation 34.51  
Sea Level Pressure  
Sea Level Pressure 30.09 in    
Wind  
Wind Speed 8 mph (North)    
Max Wind Speed 16 mph    
Max Gust Speed 18 mph    
Visibility 10 miles    
Events Rain    
T = Trace of Precipitation, MM = Missing Value Source: NWS Daily Summary

Daily Weather History Graph

Daily Weather History Graph

Search for Another Location

Airport or City:

Trip Planner

Search our weather history database for the weather conditions in past years. The results will help you decide how hot, cold, wet, or windy it might be!

Date:

Astronomy

Nov. 07, 2012 Rise Set
Actual Time 6:40 AM CST 4:51 PM CST
Civil Twilight 6:11 AM CST 5:20 PM CST
Nautical Twilight 5:38 AM CST 5:53 PM CST
Astronomical Twilight 5:06 AM CST 6:25 PM CST
Moon No Moon Rise 1:02 PM CST (11/7)
Length of Visible Light 11h 09m
Length of Day
10h 11m
Last Quarter, 43% of the Moon is Illuminated
Nov 7
Last Quarter
Nov 13
New
Nov 20
First Quarter
Nov 28
Full
Dec 6
Last Quarter

Hourly Weather History & Observations

Time (CST) Temp. Windchill Dew Point Humidity Pressure Visibility Wind Dir Wind Speed Gust Speed Precip Events Conditions
12:15 AM 43.3 °F 39.2 °F 41.0 °F 91% 29.93 in 10.0 mi West 6.9 mph - N/A   Overcast
12:35 AM 43.7 °F 39.1 °F 41.0 °F 90% 29.94 in 10.0 mi West 8.1 mph - N/A   Overcast
12:55 AM 43.7 °F 39.7 °F 41.0 °F 90% 29.94 in 10.0 mi West 6.9 mph - N/A   Overcast
1:15 AM 43.9 °F 37.9 °F 41.0 °F 90% 29.93 in 10.0 mi WNW 11.5 mph - N/A Rain Light Rain
1:35 AM 43.7 °F 37.7 °F 40.3 °F 88% 29.93 in 10.0 mi WNW 11.5 mph - N/A Rain Light Rain
1:55 AM 44.6 °F 38.4 °F 41.0 °F 87% 29.94 in 10.0 mi WNW 12.7 mph - N/A   Overcast
2:15 AM 43.2 °F 38.4 °F 40.6 °F 91% 29.94 in 10.0 mi WNW 8.1 mph - N/A   Overcast
2:35 AM 43.3 °F 38.1 °F 40.3 °F 89% 29.94 in 10.0 mi WNW 9.2 mph - N/A Rain Light Rain
2:55 AM 43.2 °F 37.9 °F 40.3 °F 90% 29.94 in 10.0 mi WNW 9.2 mph - N/A   Overcast
3:15 AM 43.0 °F 38.2 °F 40.1 °F 90% 29.94 in 10.0 mi NW 8.1 mph - N/A Rain Light Rain
3:35 AM 43.2 °F 38.4 °F 40.1 °F 89% 29.94 in 10.0 mi NW 8.1 mph - N/A   Overcast
3:55 AM 43.7 °F 38.1 °F 39.9 °F 87% 29.95 in 10.0 mi NW 10.4 mph - N/A   Overcast
4:15 AM 43.7 °F 38.1 °F 39.7 °F 86% 29.95 in 10.0 mi NW 10.4 mph - N/A Rain Light Rain
4:35 AM 43.3 °F 38.1 °F 40.3 °F 89% 29.96 in 10.0 mi NNW 9.2 mph - N/A   Overcast
4:55 AM 42.8 °F 37.0 °F 40.6 °F 92% 29.97 in 4.0 mi North 10.4 mph - N/A Rain Light Rain
5:15 AM 42.8 °F 37.5 °F 41.0 °F 93% 29.98 in 10.0 mi North 9.2 mph - N/A   Overcast
5:35 AM 41.9 °F 35.9 °F 41.4 °F 98% 29.99 in 10.0 mi North 10.4 mph - N/A   Overcast
5:55 AM 41.9 °F 36.3 °F 41.4 °F 98% 30.00 in 7.0 mi NNW 9.2 mph - N/A   Overcast
6:15 AM 41.9 °F 36.3 °F 41.4 °F 98% 30.00 in 10.0 mi NNW 9.2 mph - N/A   Overcast
6:35 AM 41.9 °F 35.0 °F 41.2 °F 97% 30.02 in 10.0 mi North 12.7 mph - N/A   Overcast
6:55 AM 41.7 °F 35.6 °F 40.5 °F 95% 30.03 in 7.0 mi North 10.4 mph - N/A   Mostly Cloudy
7:15 AM 41.0 °F 35.2 °F 40.1 °F 97% 30.04 in 5.0 mi North 9.2 mph - N/A   Mostly Cloudy
7:35 AM 41.9 °F 36.3 °F 40.1 °F 93% 30.06 in 7.0 mi North 9.2 mph - N/A   Overcast
7:55 AM 42.1 °F 34.5 °F 39.0 °F 89% 30.07 in 7.0 mi North 15.0 mph - N/A   Overcast
8:15 AM 42.1 °F 35.2 °F 38.8 °F 88% 30.08 in 7.0 mi North 12.7 mph 18.4 mph N/A   Overcast
8:35 AM 42.8 °F 35.4 °F 39.2 °F 87% 30.09 in 10.0 mi North 15.0 mph - N/A   Overcast
8:55 AM 41.9 °F 34.0 °F 38.8 °F 89% 30.10 in 7.0 mi North 16.1 mph - N/A   Overcast
9:15 AM 42.3 °F 35.5 °F 38.8 °F 88% 30.10 in 7.0 mi North 12.7 mph 18.4 mph N/A   Overcast
9:35 AM 42.8 °F 35.8 °F 38.7 °F 85% 30.11 in 10.0 mi North 13.8 mph - N/A   Overcast
9:55 AM 42.8 °F 35.8 °F 38.8 °F 86% 30.12 in 10.0 mi North 13.8 mph - N/A   Overcast
10:15 AM 42.4 °F 35.7 °F 37.6 °F 83% 30.13 in 10.0 mi North 12.7 mph - N/A   Overcast
10:35 AM 42.8 °F 36.2 °F 38.5 °F 85% 30.13 in 10.0 mi North 12.7 mph - N/A   Overcast
10:55 AM 43.3 °F 36.8 °F 38.3 °F 82% 30.13 in 10.0 mi NNE 12.7 mph - N/A   Overcast
11:15 AM 42.8 °F 37.5 °F 39.2 °F 87% 30.13 in 10.0 mi North 9.2 mph - N/A   Overcast
11:35 AM 43.3 °F 38.1 °F 38.5 °F 83% 30.13 in 10.0 mi NNE 9.2 mph - N/A   Overcast
11:55 AM 43.3 °F 38.1 °F 38.3 °F 82% 30.14 in 10.0 mi North 9.2 mph - N/A   Overcast
12:15 PM 43.7 °F 38.6 °F 38.3 °F 81% 30.14 in 10.0 mi NNE 9.2 mph - N/A   Overcast
12:35 PM 43.9 °F 38.8 °F 38.5 °F 81% 30.14 in 10.0 mi North 9.2 mph - N/A   Overcast
12:55 PM 44.2 °F 39.7 °F 39.0 °F 82% 30.13 in 10.0 mi North 8.1 mph - N/A   Overcast
1:15 PM 44.2 °F 39.2 °F 38.7 °F 81% 30.13 in 10.0 mi North 9.2 mph - N/A   Overcast
1:35 PM 44.8 °F 39.9 °F 38.8 °F 80% 30.13 in 10.0 mi North 9.2 mph - N/A   Overcast
1:55 PM 45.3 °F 41.1 °F 38.5 °F 77% 30.13 in 10.0 mi NNE 8.1 mph - N/A   Overcast
2:15 PM 44.6 °F 39.2 °F 37.2 °F 75% 30.13 in 10.0 mi North 10.4 mph - N/A   Overcast
2:35 PM 44.6 °F 40.7 °F 36.9 °F 74% 30.13 in 10.0 mi North 6.9 mph - N/A   Overcast
2:55 PM 44.4 °F 40.5 °F 36.7 °F 74% 30.13 in 10.0 mi North 6.9 mph - N/A   Overcast
3:15 PM 44.2 °F 40.3 °F 37.2 °F 76% 30.14 in 10.0 mi North 6.9 mph - N/A   Overcast
3:35 PM 44.1 °F 40.8 °F 37.2 °F 77% 30.15 in 10.0 mi NNE 5.8 mph - N/A   Overcast
3:55 PM 44.1 °F 40.8 °F 36.5 °F 75% 30.15 in 10.0 mi NE 5.8 mph - N/A   Overcast
4:15 PM 43.9 °F 41.3 °F 36.5 °F 75% 30.15 in 10.0 mi NNE 4.6 mph - N/A   Overcast
4:35 PM 43.7 °F 41.1 °F 36.5 °F 76% 30.16 in 10.0 mi NNE 4.6 mph - N/A   Overcast
4:55 PM 43.3 °F 41.7 °F 37.4 °F 80% 30.16 in 10.0 mi NE 3.5 mph - N/A   Overcast
5:15 PM 43.2 °F - 37.8 °F 81% 30.17 in 10.0 mi Calm Calm - N/A   Overcast
5:35 PM 42.8 °F - 38.3 °F 84% 30.17 in 10.0 mi Calm Calm - N/A   Overcast
5:55 PM 42.8 °F - 37.6 °F 82% 30.17 in 10.0 mi Calm Calm - N/A   Overcast
6:15 PM 42.6 °F - 38.3 °F 85% 30.18 in 10.0 mi Calm Calm - N/A   Overcast
6:35 PM 42.4 °F - 38.3 °F 85% 30.18 in 10.0 mi Calm Calm - N/A   Overcast
6:55 PM 42.4 °F - 38.5 °F 86% 30.18 in 10.0 mi Calm Calm - N/A   Overcast
7:15 PM 42.4 °F 39.6 °F 37.4 °F 82% 30.18 in 10.0 mi East 4.6 mph - N/A   Overcast
7:35 PM 41.9 °F 38.2 °F 37.4 °F 84% 30.18 in 10.0 mi East 5.8 mph - N/A   Overcast
7:55 PM 41.9 °F 40.0 °F 37.6 °F 85% 30.18 in 10.0 mi ESE 3.5 mph - N/A   Overcast
8:15 PM 41.9 °F 40.0 °F 37.9 °F 86% 30.18 in 10.0 mi ESE 3.5 mph - N/A   Overcast
8:35 PM 41.5 °F - 37.8 °F 86% 30.19 in 10.0 mi Calm Calm - N/A   Overcast
8:55 PM 41.9 °F 39.0 °F 37.2 °F 83% 30.19 in 10.0 mi SE 4.6 mph - N/A   Overcast
9:15 PM 41.5 °F - 37.4 °F 85% 30.20 in 10.0 mi Calm Calm - N/A   Overcast
9:35 PM 41.4 °F - 37.8 °F 87% 30.20 in 10.0 mi Calm Calm - N/A   Overcast
9:55 PM 41.9 °F 39.0 °F 36.7 °F 82% 30.20 in 10.0 mi ESE 4.6 mph - N/A   Overcast
10:15 PM 41.5 °F 39.6 °F 37.2 °F 85% 30.20 in 10.0 mi SE 3.5 mph - N/A   Overcast
10:35 PM 41.5 °F 39.6 °F 37.0 °F 84% 30.20 in 10.0 mi SE 3.5 mph - N/A   Overcast
11:15 PM 41.5 °F 39.6 °F 37.0 °F 84% 30.20 in 10.0 mi SSE 3.5 mph - N/A   Overcast
11:35 PM 41.4 °F - 37.4 °F 86% 30.20 in 10.0 mi Calm Calm - N/A   Overcast
11:55 PM 41.2 °F 38.2 °F 37.0 °F 85% 30.20 in 10.0 mi SSE 4.6 mph - N/A   Overcast